Weather History for Juneau, AK

Change the Weather History Date:

Saturday, March 2, 2013

  Actual Average Record
Temperature  
Mean Temperature 33 °F 32 °F  
Max Temperature 40 °F 37 °F 48 °F (1996)
Min Temperature 26 °F 26 °F -9 °F (1955)
Degree Days  
Heating Degree Days 32 33  
Month to date heating degree days 60 67  
Since 1 July heating degree days 6131 5904  
Cooling Degree Days 0 0  
Month to date cooling degree days 0 0  
Year to date cooling degree days 0 0  
Moisture  
Dew Point 31 °F    
Average Humidity 88    
Maximum Humidity 100    
Minimum Humidity 76    
Precipitation  
Precipitation 0.00 in 0.14 in 0.71 in (2002)
Month to date precipitation 0.24 0.28  
Year to date precipitation 14.55 9.76  
Snow  
Snow 0.00 in 0.60 in 10.70 in (2007)
Month to date snowfall 0.0 1.1  
Since 1 July snowfall 63.4 75.1  
Snow Depth 0.00 in    
Sea Level Pressure  
Sea Level Pressure 30.03 in    
Wind  
Wind Speed 2 mph (SW)    
Max Wind Speed 12 mph    
Max Gust Speed 13 mph    
Visibility 8 miles    
Events Fog    
T = Trace of Precipitation, MM = Missing Value Source: NWS Daily Summary

Daily Weather History Graph

Daily Weather History Graph

Search for Another Location

Airport:

Trip Planner

Search our weather history database for the weather conditions in past years. The results will help you decide how hot, cold, wet, or windy it might be!

Date:

Astronomy

Mar. 02, 2013 Rise Set
Actual Time 6:49 AM AKST 5:32 PM AKST
Civil Twilight 6:09 AM AKST 6:11 PM AKST
Nautical Twilight 5:24 AM AKST 6:57 PM AKST
Astronomical Twilight 4:37 AM AKST 7:44 PM AKST
Moon No Moon Rise 8:04 AM AKST (3/2)
Length of Visible Light 12h 02m
Length of Day
10h 42m
Waning Gibbous, 72% of the Moon is Illuminated
Mar 2
Waning Gibbous
Mar 4
Last Quarter
Mar 11
New
Mar 19
First Quarter
Mar 27
Full

Hourly Weather History & Observations

Time (AKST) Temp. Windchill Dew Point Humidity Pressure Visibility Wind Dir Wind Speed Gust Speed Precip Events Conditions
12:53 AM 36.0 °F 30.3 °F 33.1 °F 89% 29.98 in 10.0 mi ESE 6.9 mph - N/A   Overcast
1:53 AM 34.0 °F - 33.1 °F 96% 29.98 in 10.0 mi Calm Calm - N/A   Overcast
2:36 AM 33.1 °F - 32.0 °F 96% 29.98 in 10.0 mi Calm Calm - N/A   Overcast
3:53 AM 32.0 °F - 30.9 °F 96% 29.97 in 10.0 mi Calm Calm - N/A   Overcast
4:53 AM 32.0 °F - 30.9 °F 96% 29.97 in 10.0 mi Calm Calm - N/A   Overcast
5:53 AM 30.9 °F - 30.9 °F 100% 29.97 in 10.0 mi Calm Calm - N/A   Mostly Cloudy
6:38 AM 32.0 °F - 30.9 °F 96% 29.96 in 10.0 mi Calm Calm - N/A   Mostly Cloudy
6:53 AM 32.0 °F - 32.0 °F 100% 29.96 in 10.0 mi Calm Calm - N/A Fog Patches of Fog
7:42 AM 30.9 °F - 30.9 °F 100% 29.97 in 9.0 mi Calm Calm - N/A Fog Patches of Fog
7:53 AM 30.9 °F 27.5 °F 30.0 °F 96% 29.97 in 9.0 mi East 3.5 mph - N/A Fog Patches of Fog
8:21 AM 32.0 °F 28.7 °F 30.9 °F 96% 29.97 in 0.2 mi SSE 3.5 mph - N/A Fog Mostly Cloudy
8:53 AM 32.0 °F - 30.9 °F 96% 29.98 in 0.2 mi Calm Calm - N/A Fog Fog
9:11 AM 32.0 °F - 30.9 °F 96% 29.98 in 1.0 mi Calm Calm - N/A   Mostly Cloudy
9:53 AM 34.0 °F - 33.1 °F 96% 29.99 in 2.0 mi Calm Calm - N/A Fog Mostly Cloudy
10:15 AM 35.1 °F 31.0 °F 34.0 °F 96% 29.99 in 5.0 mi WNW 4.6 mph - N/A   Mostly Cloudy
10:53 AM 37.9 °F 35.5 °F 36.0 °F 93% 29.99 in 10.0 mi Variable 3.5 mph - N/A   Mostly Cloudy
11:53 AM 39.0 °F 35.7 °F 34.0 °F 82% 30.00 in 10.0 mi West 4.6 mph - N/A   Mostly Cloudy
12:53 PM 39.9 °F 34.5 °F 35.1 °F 83% 30.01 in 10.0 mi WSW 8.1 mph - N/A   Mostly Cloudy
1:53 PM 39.0 °F 33.4 °F 32.0 °F 76% 30.02 in 10.0 mi WSW 8.1 mph - N/A   Mostly Cloudy
2:53 PM 39.0 °F 34.8 °F 32.0 °F 76% 30.02 in 10.0 mi SW 5.8 mph - N/A   Mostly Cloudy
3:53 PM 37.9 °F 33.5 °F 33.1 °F 83% 30.04 in 10.0 mi WSW 5.8 mph - N/A   Mostly Cloudy
4:53 PM 37.9 °F 35.5 °F 30.9 °F 76% 30.06 in 10.0 mi WNW 3.5 mph - N/A   Mostly Cloudy
5:53 PM 34.0 °F - 32.0 °F 92% 30.08 in 10.0 mi Calm Calm - N/A   Mostly Cloudy
6:53 PM 32.0 °F - 30.0 °F 92% 30.10 in 10.0 mi Calm Calm - N/A   Mostly Cloudy
7:53 PM 28.9 °F - 28.0 °F 96% 30.12 in 10.0 mi Calm Calm - N/A   Scattered Clouds
8:53 PM 28.4 °F - 26.6 °F 93% 30.14 in 10.0 mi Calm Calm - N/A   Scattered Clouds
9:53 PM 28.0 °F - 27.0 °F 96% 30.16 in 10.0 mi Calm Calm - N/A   Scattered Clouds
10:53 PM 26.1 °F 21.9 °F 25.0 °F 96% 30.18 in 10.0 mi ESE 3.5 mph - N/A   Clear
11:18 PM 27.0 °F - 26.1 °F 96% 30.19 in 10.0 mi Calm Calm - N/A   Scattered Clouds
11:53 PM 27.0 °F - 26.1 °F 96% 30.20 in 10.0 mi Calm Calm - N/A   Partly Cloudy